Regional Weather Roundup
Issued by NWS Mobile, AL

Home | Current Version | Previous Version | Text Only | Print | Product List | Glossary On
Versions: 1 2 3 4 5 6 7 8 9 10 11 12 13 14 15 16 17 18 19 20 21 22 23 24 25 26 27 28 29 30 31 32 33 34 35 36 37 38 39 40 41 42 43 44 45 46 47 48 49 50
000
ASUS44 KMOB 200510
RWRMOB
REGIONAL WEATHER ROUNDUP
NATIONAL WEATHER SERVICE MOBILE AL
1200 AM CDT WED AUG 20 2014

NOTE: "FAIR" INDICATES FEW OR NO CLOUDS BELOW 12,000 FEET WITH NO
      SIGNIFICANT WEATHER AND/OR OBSTRUCTIONS TO VISIBILITY.

  * THESE STATIONS ARE PART OF THE UNIVERSITY OF SOUTH ALABAMA
    MESONET AND ARE NOT UNDER NWS OR FAA QUALITY CONTROL.

ALZ061>064-200600-
COASTAL ALABAMA

CITY           SKY/WX    TMP DP  RH WIND       PRES   REMARKS
MOBILE REG APT PTCLDY    77  72  84 SE9       29.99F
BROOKLEY FIELD LGT RAIN  79  73  82 SE8G18    29.99F
USA CAMPUS*      N/A     77  72  83 CALM      29.98F
DOG RIVER*       N/A     81  72  74 S5        29.97F


CITY           SKY/WX    TMP DP  RH WIND       PRES   REMARKS
MOUNT VERNON*  NOT AVBL
SARALAND*      NOT AVBL
BAY MINETTE*   NOT AVBL
LOXLEY*          N/A     70  68  94 SE7       29.98F
ROBERTSDALE*     N/A    N/A N/A N/A S2        29.99F
FAIRHOPE*        N/A     70  70 100 S6        29.97F
ELBERTA*       NOT AVBL
FOLEY*         NOT AVBL
GRAND BAY*       N/A     79  77  94 E2        29.97F
DAUPHIN ISLND* NOT AVBL
BON SCOUR NWR* NOT AVBL
GULF SHORES    PTCLDY    74  68  81 CALM      29.98F

$$

ALZ051>060-200600-
INTERIOR SOUTHWEST AND SOUTH CENTRAL ALABAMA

CITY           SKY/WX    TMP DP  RH WIND       PRES   REMARKS
GREENVILLE     CLOUDY    73  70  90 SW3       29.98F
EVERGREEN      CLOUDY    73  70  90 NE3       29.99F
CASTLEBERRY*   NOT AVBL
ATMORE*          N/A     70  70 100 S3        29.99F
DIXIE*         NOT AVBL
ANDALUSIA/OPP  CLOUDY    75  70  84 CALM      29.97F
ANDALUSIA*     NOT AVBL
FLORALA APT    CLOUDY    73  70  90 CALM      29.99F
FLORALA*         N/A     72  70  94 CALM      29.96F

$$

FLZ001>006-200600-
WESTERN FLORIDA PANHANDLE

CITY           SKY/WX    TMP DP  RH WIND       PRES   REMARKS
PENSACOLA      PTCLDY    71  68  90 W3        29.98F
NAS PENSACOLA  PTCLDY    73  68  84 CALM      29.98F
MILTON         PTCLDY    69  67  93 W6        29.99F
WHTNG S FIELD  PTCLDY    71  68  90 NW6       29.99F


CITY           SKY/WX    TMP DP  RH WIND       PRES   REMARKS
WALNUT HILL*   NOT AVBL
JAY*           NOT AVBL
DUKE FIELD     MOCLDY    73  73  99 CALM      29.98S
CRESTVIEW      MOCLDY    73  71  93 CALM      29.99F
VALPARAISO     PTCLDY    75  71  86 W6        29.98F
DESTIN         PTCLDY    80  73  79 NW6       29.98S

$$

MSZ076-079-200600-
INTERIOR SOUTHEAST MISSISSIPPI

CITY           SKY/WX    TMP DP  RH WIND       PRES   REMARKS
LEAKESVILLE*     N/A     72  70  94 CALM        N/A
AGRICOLA*      NOT AVBL

$$

MARINE OBSERVATIONS

STATION/POSITION TIME  TEMP    WIND        PRES    WAVE
                       AIR SEA DIR/SP/G            HT/PER
                 (UTC) (F)     (DEG/KT/KT) (MB)    (FT/S)
PASCAGOULA       0500   85     180/  7/  9 1015.3F
PETIT BOIS ISLND 0500   84     190/  8/ 10 1016.1S
GRAND BAY        0400   84     240/  5     1017.0S
KATRINA CUT      0400   84     220/  7     1017.3R
CEDAR POINT      0400   85     220/ 10     1016.9R
E DAUPHIN ISLAND 0400   85     220/  5/  7 1016.6R
MIDDLE BAY LIGHT 0400   77      50/ 19     1016.6R
USCG MOBILE BAY  0500   80 85  160/  7/ 12 1014.1R
STATE DOCKS      0500   80 87              1014.9R
MEAHER PARK      0400   74     140/ 10     1015.2F
WEEKS BAY        0400   77                   N/A
FORT MORGAN      0500   78      60/ 15/ 17 1015.9F
12 S ORANGE BCH  0500   82 85   30/  6/  8 1016.4F   2/ 3
PENSACOLA BAY    0500   75 86  280/  3/  6 1015.8F
64 S DAUPHIN ISL 0422   85 87  200/  6/  6 1016.6F
67 S FORT MORGAN 0400   85                 1016.6S

$$

SELECTED LOCATIONS ACROSS THE REGION

CITY           SKY/WX    TMP DP  RH WIND       PRES   REMARKS
NEW ORLEANS    MOCLDY    81  75  82 CALM      29.99S
GULFPORT       PTCLDY    81  74  79 CALM      29.97F
PASCAGOULA AP  CLEAR     79  76  90 S3        29.98F
PASCAGOULA*      N/A     81  77  89 CALM      29.98F
HATTIESBURG    PTCLDY    80  73  79 CALM      29.99F
LAUREL         PTCLDY    73  70  88 SE5       30.00F
MERIDIAN       PTCLDY    71  68  90 CALM      29.98F
JACKSON        PTCLDY    78  74  87 S3        29.97S
MONTGOMERY     CLOUDY    74  70  87 CALM      29.98F
TROY           CLOUDY    72  69  90 CALM      29.99F
KINSTON*       NOT AVBL
GENEVA*          N/A     72  70  94 W3        30.00S
ASHFORD*       NOT AVBL
DOTHAN         CLOUDY    75  71  87 CALM      30.01F
PANAMA CITY    CLEAR     78  74  87 CALM      29.98F

$$




USA.gov is the U.S. government's official web portal to all federal, state and local government web resources and services.